OK1PNK-5 Weather Reports


Display with metric or nautical units.
time (UTC)temp
F
wind
direction
speed
MPH
gust
MPH
rain 1hr
in
rain 24hr
in
rain mn
in
humidity
%
barometer
mb
20260505211954 59 279 4.0 9.0 0.00 0.00 0.33 83 965.5
20260505210954 59 279 4.0 9.0 0.00 0.00 0.33 83 965.5
20260505205954 59 279 4.0 9.0 0.00 0.00 0.33 83 965.5
20260505204954 60 285 5.0 9.0 0.00 0.00 0.33 82 965.3
20260505203954 60 284 2.0 6.0 0.00 0.00 0.33 82 965.3
20260505202954 60 225 2.0 5.0 0.00 0.00 0.33 82 965.4
20260505201954 60 216 3.0 8.0 0.00 0.00 0.33 83 965.5
20260505200954 60 255 2.0 4.0 0.02 0.00 0.33 83 965.2
20260505195954 60 255 2.0 4.0 0.03 0.00 0.33 83 965.2
20260505194954 60 315 2.0 8.0 0.08 0.00 0.33 83 964.7
20260505193954 61 310 3.0 9.0 0.08 0.00 0.33 83 964.6
20260505192954 61 289 6.0 13.0 0.09 0.00 0.33 83 964.7
20260505191954 61 289 6.0 13.0 0.09 0.00 0.33 83 964.7
20260505190954 62 297 6.0 15.0 0.07 0.00 0.31 80 964.1
20260505185954 64 282 6.0 16.0 0.02 0.00 0.26 78 964.5
20260505184954 64 282 6.0 16.0 0.02 0.00 0.26 78 964.5
20260505183954 64 183 3.0 8.0 0.01 0.00 0.25 76 963.9
20260505182954 65 99 4.0 11.0 0.02 0.00 0.24 75 962.4
20260505181954 65 99 4.0 11.0 0.13 0.00 0.24 75 962.4
20260505180954 65 103 2.0 7.0 0.23 0.00 0.24 75 962.1
20260505175954 65 333 4.0 14.0 0.24 0.00 0.24 75 961.9
20260505174954 66 336 5.0 14.0 0.24 0.00 0.24 73 962.0
20260505173954 67 337 5.0 12.0 0.24 0.00 0.24 69 962.4
20260505172953 69 315 2.0 7.0 0.22 0.00 0.22 64 962.8
20260505171954 70 320 2.0 3.0 0.11 0.00 0.11 59 963.4
20260505170954 71 107 4.0 12.0 0.01 0.00 0.01 53 963.1
20260505165953 71 333 4.0 11.0 0.00 0.00 0.00 50 962.1
20260505164954 71 333 4.0 11.0 0.00 0.00 0.00 50 962.1
20260505163954 72 329 4.0 11.0 0.00 0.00 0.00 46 962.2
20260505162954 74 332 6.0 13.0 0.00 0.00 0.00 43 962.3
20260505160223 76 330 5.0 13.0 0.00 0.00 0.00 39 962.4
20260505153223 78 315 2.0 5.0 0.00 0.00 0.00 35 962.6
20260505152223 78 32 1.0 6.0 0.00 0.00 0.00 30 962.7
20260505151223 78 161 1.0 2.0 0.00 0.00 0.00 30 962.7
20260505150223 79 5 1.0 3.0 0.00 0.00 0.00 29 962.7
20260505140223 80 128 1.0 4.0 0.00 0.00 0.00 29 963.5
20260505130223 80 251 2.0 4.0 0.00 0.00 0.00 30 964.0
20260505124223 80 292 2.0 6.0 0.00 0.00 0.00 30 964.2
20260505123223 80 138 4.0 8.0 0.00 0.00 0.00 30 964.3
20260505122223 80 78 2.0 4.0 0.00 0.00 0.00 30 964.4
20260505121223 80 360 2.0 6.0 0.00 0.00 0.00 31 964.4
20260505120223 80 336 2.0 5.0 0.00 0.00 0.00 31 964.4
20260505115223 80 315 2.0 5.0 0.00 0.00 0.00 34 964.5
20260505114223 79 110 2.0 6.0 0.00 0.00 0.00 33 964.6
20260505113223 78 56 2.0 3.0 0.00 0.00 0.00 34 964.7
20260505112223 78 285 2.0 6.0 0.00 0.00 0.00 35 964.9
20260505111223 78 345 2.0 6.0 0.00 0.00 0.00 36 964.9
20260505110223 77 129 1.0 6.0 0.00 0.00 0.00 37 965.0
20260505101223 75 131 4.0 8.0 0.00 0.00 0.00 44 965.6
20260505100223 75 131 4.0 8.0 0.00 0.00 0.00 44 965.6
20260505095223 74 107 2.0 6.0 0.00 0.00 0.00 45 965.8
20260505094223 73 104 3.0 8.0 0.00 0.00 0.00 47 965.9
20260505093223 73 104 3.0 8.0 0.00 0.00 0.00 47 965.9
20260505092223 72 45 2.0 6.0 0.00 0.00 0.00 50 966.1
20260505091223 71 161 2.0 6.0 0.00 0.00 0.00 50 966.2
20260505090223 71 123 2.0 6.0 0.00 0.00 0.00 52 966.3
20260505085223 71 123 2.0 6.0 0.00 0.00 0.00 52 966.3
20260505084223 69 135 2.0 4.0 0.00 0.00 0.00 52 966.4
20260505081223 67 11 1.0 4.0 0.00 0.00 0.00 56 966.6
20260505080223 66 142 2.0 4.0 0.00 0.00 0.00 58 966.8
20260505075223 66 142 2.0 4.0 0.00 0.00 0.00 58 966.8
20260505074223 65 9 1.0 3.0 0.00 0.00 0.00 59 966.8
20260505073223 64 90 1.0 3.0 0.00 0.00 0.00 60 967.0
20260505072223 64 90 1.0 3.0 0.00 0.00 0.00 60 967.0
20260505071223 64 315 1.0 2.0 0.00 0.00 0.00 61 967.1
20260505070223 63 90 2.0 6.0 0.00 0.00 0.00 63 967.1
20260505065223 63 90 2.0 6.0 0.00 0.00 0.00 63 967.1
20260505063223 60 90 1.0 3.0 0.00 0.00 0.00 63 967.4
20260505062223 60 90 1.0 3.0 0.00 0.00 0.00 63 967.4
20260505061223 60 315 1.0 2.0 0.00 0.00 0.00 63 967.5
20260505060223 60 90 1.0 2.0 0.00 0.00 0.00 63 967.5
20260505055223 59 315 1.0 2.0 0.00 0.00 0.00 63 967.3
20260505054223 59 315 1.0 2.0 0.00 0.00 0.00 63 967.3
20260505053223 59 315 1.0 2.0 0.00 0.00 0.00 63 967.4
20260505052223 59 196 1.0 3.0 0.00 0.00 0.00 62 967.5
20260505051223 59 196 1.0 3.0 0.00 0.00 0.00 62 967.5
20260505050223 59 184 1.0 2.0 0.00 0.00 0.00 61 967.4
20260505041223 60 333 1.0 2.0 0.00 0.00 0.00 59 967.5
20260505040223 60 333 1.0 2.0 0.00 0.00 0.00 59 967.5
20260505035223 60 315 1.0 2.0 0.00 0.00 0.00 58 967.5
20260505034223 61 174 1.0 2.0 0.00 0.00 0.00 56 967.8
20260505033223 61 174 1.0 2.0 0.00 0.00 0.00 56 967.8
20260505032223 61 174 1.0 2.0 0.00 0.00 0.00 56 967.8
20260505031223 61 174 1.0 2.0 0.00 0.00 0.00 56 967.8
20260505030223 61 174 1.0 2.0 0.00 0.00 0.00 56 967.8
20260505025223 61 344 1.0 3.0 0.00 0.00 0.00 56 967.8
20260505024223 61 344 1.0 3.0 0.00 0.00 0.00 56 967.8
20260505023223 61 90 1.0 2.0 0.00 0.00 0.00 55 967.9
20260505022223 62 333 1.0 2.0 0.00 0.00 0.00 55 967.9
20260505021223 62 225 1.0 2.0 0.00 0.00 0.00 54 968.0
20260505020223 62 225 1.0 2.0 0.00 0.00 0.00 54 968.0
20260505015223 62 270 1.0 2.0 0.00 0.00 0.00 53 968.1
20260505014223 63 360 1.0 2.0 0.00 0.00 0.00 51 968.6
20260505013223 63 360 1.0 2.0 0.00 0.00 0.00 51 968.6
20260505012223 63 360 1.0 2.0 0.00 0.00 0.00 51 968.6
20260505011223 63 360 1.0 2.0 0.00 0.00 0.00 51 968.6
20260505010223 63 360 1.0 2.0 0.00 0.00 0.00 51 968.6
20260505005223 63 360 1.0 2.0 0.00 0.00 0.00 51 968.6
20260505004223 63 329 1.0 2.0 0.00 0.00 0.00 51 968.7
20260505003223 63 332 1.0 3.0 0.00 0.00 0.00 50 968.7
20260505002223 63 338 1.0 2.0 0.00 0.00 0.00 50 968.8
20260505001223 63 323 1.0 2.0 0.00 0.00 0.00 49 968.8
20260505000223 64 315 2.0 4.0 0.00 0.00 0.00 49 968.8
20260504235223 64 339 1.0 2.0 0.00 0.00 0.00 49 968.9
20260504234223 64 340 2.0 3.0 0.00 0.00 0.00 48 969.0
20260504233223 64 322 2.0 3.0 0.00 0.00 0.00 48 969.1
20260504232223 64 340 2.0 3.0 0.00 0.00 0.00 47 969.2
20260504231223 65 315 1.0 4.0 0.00 0.00 0.00 47 969.3
20260504230223 65 337 2.0 4.0 0.00 0.00 0.00 46 969.5
20260504225223 65 333 2.0 5.0 0.00 0.00 0.00 46 969.6
20260504224223 65 320 2.0 3.0 0.00 0.00 0.00 45 969.7
20260504223223 66 322 2.0 5.0 0.00 0.00 0.00 44 969.6
20260504222223 66 323 2.0 3.0 0.00 0.00 0.00 44 969.7
20260504221223 66 304 2.0 3.0 0.00 0.00 0.00 43 969.7
20260504220223 67 304 1.0 2.0 0.00 0.00 0.00 43 969.7
20260504215223 67 270 1.0 3.0 0.00 0.00 0.00 43 969.6
20260504214223 67 332 2.0 3.0 0.00 0.00 0.00 42 969.6
20260504213223 67 341 1.0 2.0 0.00 0.00 0.00 43 969.6
20260504212223 67 333 1.0 3.0 0.00 0.00 0.00 42 969.7